Back to catalog

STARLINK-32683

AliveCommunicationsVLEO
NORAD 62445·PAYLOAD·🇺🇸 United States

Launched Dec 29, 2024 from Vandenberg Space Force Base

Loading…

Next Passes (next 24 hours)

TLE

FreshSource: CelesTrak SupGP

Epoch: Sep 14, 2026, 13:53 UTC

1 62445C 24251P   26257.57895833  .00021135  00000+0  62507-3 0  2576
2 62445  53.1578 175.1253 0001365  84.1002  65.1159 15.34347732    13

Track STARLINK-32683 in real time with AllMySat

Download on the App Store